Main page
METAR-TAF:

METAR-TAF

Airports :

Lawrence Municipal Airport

Lawrence, Kansas, United States

latitude: 39-00-30N, longitude: 095-12-42W, elevation: 830 ft

Current weather observation

The report was made 32 minutes ago, at 22:52 UTC
Calm wind
Temperature 75°F
Humidity 34%
Pressure 29.87 in. Hg
Visibility: 10 miles
Clear sky

METAR: KLWC 222252Z AUTO 00000KT 10SM CLR 24/07 A2987 RMK AO1 SLP112 T02440072

Time: 18:24 (23:24 UTC)


TAF: missing

Weather observations and forecasts of more than 4000 airports (METAR and TAF reports).

The available stations are represented by yellow and red dots on the map.

Hover mouse over dot to see the name of the station.

Then click to see weather observations and forecasts.

To change the map : click on the green buttons with a black cross to zoom in, on the green button with a dash to zoom out, or on the green arrows for adjacent maps.


METAR-TAF: